FW6181 Weather Reports


time (UTC)temp
C
wind
direction
speed
KPH
gust
KPH
rain 1hr
cm
rain 24hr
cm
rain mn
cm
humidity
%
barometer
mb
20260507213014 26 56 0.0 1.6 0.00 0.10 0.10 74 1012.6
20260507211504 26 72 0.0 6.4 0.00 0.10 0.10 75 1012.6
20260507210007 27 59 0.0 1.6 0.00 0.10 0.10 74 1012.5
20260507204504 27 141 0.0 6.4 0.00 0.10 0.10 74 1012.4
20260507203003 27 77 0.0 3.2 0.00 0.10 0.10 74 1012.6
20260507201507 26 61 0.0 6.4 0.00 0.10 0.10 75 1012.5
20260507200003 27 158 0.0 1.6 0.00 0.10 0.10 71 1012.7
20260507194621 27 97 0.0 0.0 0.00 0.10 0.10 69 1012.8
20260507194501 28 98 0.0 1.6 0.00 0.10 0.10 70 1012.8
20260507193100 28 56 0.0 1.6 0.00 0.10 0.10 70 1012.9
20260507191559 27 240 0.0 1.6 0.00 0.10 0.10 71 1012.9
20260507190058 27 64 0.0 1.6 0.00 0.10 0.10 72 1013.1
20260507184557 28 46 0.0 1.6 0.00 0.10 0.10 71 1013.1
20260507183056 27 32 0.0 1.6 0.00 0.10 0.10 73 1013.2
20260507181558 26 202 0.0 1.6 0.00 0.10 0.10 74 1013.4
20260507180050 26 56 0.0 6.4 0.00 0.10 0.10 75 1013.5
20260507174556 25 116 0.0 4.8 0.00 0.10 0.10 79 1013.6
20260507173113 25 115 0.0 8.0 0.00 0.10 0.10 78 1013.7
20260507171548 24 68 0.0 3.2 0.00 0.10 0.10 81 1013.8
20260507170043 23 147 0.0 1.6 0.00 0.10 0.10 84 1014.0
20260507164548 22 135 0.0 1.6 0.00 0.10 0.10 86 1014.2
20260507163039 22 15 0.0 0.0 0.00 0.10 0.10 88 1014.3
20260507161554 21 166 0.0 1.6 0.00 0.10 0.10 90 1014.3
20260507160039 21 138 0.0 0.0 0.00 0.10 0.10 92 1014.2
20260507154538 20 79 0.0 3.2 0.00 0.10 0.10 93 1014.0
20260507153033 20 129 0.0 6.4 0.03 0.10 0.10 93 1014.0
20260507151532 20 84 0.0 0.0 0.03 0.10 0.10 92 1014.1
20260507150031 20 38 0.0 0.0 0.03 0.10 0.10 93 1014.0
20260507144534 20 29 0.0 0.0 0.05 0.10 0.10 93 1014.0
20260507143028 20 348 0.0 0.0 0.03 0.08 0.08 93 1014.0
20260507141526 21 326 0.0 1.6 0.03 0.08 0.08 94 1013.9
20260507140024 21 111 0.0 0.0 0.03 0.08 0.08 94 1013.8
20260507134523 21 122 0.0 0.0 0.00 0.05 0.05 94 1013.6
20260507133020 21 84 0.0 0.0 0.00 0.05 0.05 93 1013.4
20260507131527 21 126 0.0 0.0 0.03 0.05 0.05 93 1013.5
20260507130016 22 41 0.0 0.0 0.03 0.05 0.05 93 1013.3
20260507124517 22 41 0.0 3.2 0.05 0.05 0.05 93 1013.0
20260507123010 22 149 0.0 4.8 0.05 0.05 0.05 93 1012.7
20260507121506 23 65 0.0 0.0 0.03 0.03 0.03 92 1012.6
20260507120006 23 65 0.0 0.0 0.03 0.03 0.03 92 1012.1
20260507114615 24 33 0.0 0.0 0.00 0.00 0.00 94 1011.6
20260507113058 24 208 0.0 0.0 0.00 0.00 0.00 93 1011.5
20260507111557 24 205 0.0 1.6 0.00 0.00 0.00 93 1011.2
20260507104556 24 186 0.0 1.6 0.00 0.00 0.00 93 1010.9
20260507103053 24 57 0.0 3.2 0.00 0.00 0.00 93 1010.9
20260507101601 24 214 0.0 4.8 0.00 0.00 0.00 93 1010.6
20260507100053 24 210 0.0 3.2 0.00 0.00 0.00 93 1010.7
20260507094557 24 200 0.0 0.0 0.00 0.00 0.00 93 1010.6
20260507093051 24 204 0.0 1.6 0.00 0.00 0.00 93 1010.5
20260507091551 25 276 0.0 4.8 0.00 0.00 0.00 93 1010.5
20260507090054 25 162 0.0 1.6 0.00 0.00 0.00 92 1010.4
20260507084550 25 164 0.0 3.2 0.00 0.00 0.00 92 1010.5
20260507083049 25 218 0.0 3.2 0.00 0.00 0.00 93 1010.5
20260507081549 25 212 0.0 3.2 0.00 0.00 0.00 93 1010.3
20260507080049 25 205 0.0 6.4 0.00 0.00 0.00 93 1010.4
20260507074646 24 190 0.0 6.4 0.00 0.00 0.00 93 1010.5
20260507073054 25 204 0.0 3.2 0.00 0.00 0.00 93 1010.8
20260507071542 25 150 0.0 0.0 0.00 0.00 0.00 93 1011.0
20260507070043 25 141 0.0 3.2 0.00 0.00 0.00 93 1011.0
20260507064548 25 149 0.0 0.0 0.00 0.00 0.00 93 1011.1
20260507063047 25 20 0.0 0.0 0.00 0.00 0.00 93 1011.2
20260507061541 25 122 0.0 1.6 0.00 0.00 0.00 92 1011.3
20260507060037 25 211 0.0 4.8 0.00 0.00 0.00 92 1011.1
20260507054537 25 269 0.0 3.2 0.00 0.00 0.00 92 1011.2
20260507053036 25 181 0.0 6.4 0.00 0.00 0.00 92 1011.0
20260507051532 25 166 0.0 4.8 0.00 0.00 0.00 92 1011.2
20260507050032 25 248 0.0 6.4 0.00 0.00 0.00 92 1011.1
20260507044528 25 210 3.2 11.3 0.00 0.00 0.00 92 1010.9
20260507043031 25 165 0.0 12.9 0.00 0.00 0.00 92 1010.6
20260507041536 25 209 0.0 14.5 0.00 0.00 0.00 92 1010.5
20260507040027 25 205 0.0 12.9 0.00 0.00 0.00 92 1010.6
20260507034534 25 205 1.6 6.4 0.00 0.00 0.00 91 1010.6
20260507033026 25 130 1.6 11.3 0.00 0.00 0.00 91 1010.8
20260507031525 25 205 0.0 9.7 0.00 0.00 0.00 91 1010.8
20260507030024 25 173 3.2 9.7 0.00 0.00 0.00 91 1010.8
20260507024525 25 180 0.0 6.4 0.00 0.00 0.00 90 1010.9
20260507023024 25 199 0.0 6.4 0.00 0.00 0.00 89 1011.3
20260507021522 25 205 1.6 9.7 0.00 0.00 0.00 89 1011.2
20260507020025 25 206 0.0 6.4 0.00 0.00 0.00 89 1011.1
20260507014525 25 220 1.6 6.4 0.00 0.00 0.00 88 1010.9
20260507013021 25 213 0.0 1.6 0.00 0.00 0.00 87 1010.7
20260507011521 25 191 0.0 0.0 0.00 0.00 0.00 87 1010.6
20260507010031 26 200 0.0 6.4 0.00 0.00 0.00 86 1010.4
20260507004520 26 239 0.0 8.0 0.00 0.00 0.00 86 1010.1
20260507003019 26 205 0.0 6.4 0.00 0.00 0.00 85 1009.9
20260507001517 26 190 1.6 9.7 0.00 0.00 0.00 84 1009.8
20260507000018 26 27 3.2 11.3 0.00 0.00 0.00 84 1010.2
20260506234535 26 210 0.0 6.4 0.00 0.00 0.00 83 1010.0
20260506233015 26 203 0.0 9.7 0.00 0.00 0.00 82 1010.1
20260506231516 26 206 1.6 19.3 0.00 0.00 0.00 82 1009.9
20260506230016 27 207 1.6 12.9 0.00 0.00 0.00 80 1009.8
20260506224524 27 175 3.2 11.3 0.00 0.00 0.00 80 1009.8
20260506223013 27 210 6.4 16.1 0.00 0.00 0.00 79 1009.8
20260506221512 28 184 4.8 16.1 0.00 0.00 0.00 79 1010.0
20260506220022 28 234 3.2 14.5 0.00 0.00 0.00 79 1010.4
20260506214508 28 196 4.8 12.9 0.00 0.00 0.00 79 1010.5